Regional Weather Roundup
Issued by NWS

Home | Current Version | Previous Version | Text Only | Print | Product List | Glossary Off
Versions: 1 2 3 4 5 6 7 8 9 10 11 12 13 14 15 16 17 18 19 20 21 22 23 24 25 26 27 28 29 30 31 32 33 34 35 36 37 38 39 40 41 42 43 44 45 46 47 48 49 50

425
ASUS45 KABQ 241910
RWRNM
NEW MEXICO REGIONAL WEATHER ROUNDUP
NATIONAL WEATHER SERVICE ALBUQUERQUE NM
1200 PM MST TUE JAN 24 2017

NOTE: "FAIR" MEANS FEW OR NO CLOUDS BELOW 12,000 FEET AGL WITH NO
       SIGNIFICANT WEATHER OR OBSTRUCTIONS TO VISION.

      THIS PRODUCT IS RELEASED AS TWO VERSIONS.  ONE VERSION NEAR
      THE TOP OF THE HOUR CONTAINING PRELIMINARY DATA FROM ALBUQUERQUE
      AND OTHER STATIONS.  A FINAL VERSION WITH ADDITIONAL DATA IS
      ISSUED ABOUT 10 MINUTES AFTER THE HOUR.

NMZ501-503-504-510>518-242000-
NORTHWEST PLATEAU/NORTHCENTRAL MOUNTAINS

CITY           SKY/WX    TMP DP  RH WIND       PRES   REMARKS
FARMINGTON     PTSUNNY   29  24  82 W12       29.71F WCI  19
LOS ALAMOS     CLOUDY    29  17  61 SW17G23   29.68F WCI  17
SANTA FE       FAIR      34  20  56 W23G30    29.70S WCI  22
TAOS           PTSUNNY   28  12  50 W22       29.62F WCI  15
ANGEL FIRE     CLOUDY    22  16  76 SW12G20   29.60S WCI  10

$$
NMZ402-403-502-505>509-242000-
WESTCENTRAL MOUNTAINS/SOUTHWEST MOUNTAINS

CITY           SKY/WX    TMP DP  RH WIND       PRES   REMARKS
GALLUP         SNOW      26  21  81 W15       29.79S VSB 1/2 WCI  14
GRANTS         CLOUDY    29  18  64 W17G26    29.79S WCI  17
SILVER CITY    FAIR      40  24  52 W23G29    29.88F WCI  30

$$
NMZ407-409-411-412-242000-
SOUTHERN DESERTS

CITY           SKY/WX    TMP DP  RH WIND       PRES   REMARKS
DEMING         CLOUDY    46  23  40 W18G28    29.89F
LAS CRUCES     FAIR      47  22  36 W24G31    29.88F
HOLLOMAN AFB   FAIR      50  22  33 SW23G31   29.86F
ALAMOGORDO     FAIR      50  19  29 W21G26    29.85F
T OR C         FAIR      47  10  22 W17G31    29.80F

$$
NMZ519>523-242000-
CENTRAL VALLEYS/CENTRAL HIGHLANDS

CITY           SKY/WX    TMP DP  RH WIND       PRES   REMARKS
ALBUQUERQUE    FAIR      39  15  37 W30G44    29.76S WCI  27
DOUBLE EAGLE   MOSUNNY   37  18  44 SW24G39   29.76F WCI  26
MORIARTY ARPT  PTSUNNY   39  16  38 W30       29.74F WCI  27
CLINES CORNERS PTSUNNY   31  17  56 W32G46    29.68F WCI  16
BELEN          PTSUNNY   43  16  33 W28G35    29.79F
SOCORRO        FAIR      46  10  22 W18G24    29.80F

$$
NMZ524>526-539-540-242000-
SOUTHCENTRAL MOUNTAINS

CITY           SKY/WX    TMP DP  RH WIND       PRES   REMARKS
RUIDOSO        NOT AVBL

$$
NMZ527>531-242000-
NORTHEAST HIGHLANDS/NORTHEAST PLAINS

CITY           SKY/WX    TMP DP  RH WIND       PRES   REMARKS
LAS VEGAS      PTSUNNY   34  16  47 SW31G38   29.62F WCI  20
RATON          FAIR      40  20  44 W17G24    29.51F WCI  31
CLAYTON        PTSUNNY   52  24  33 W16G29    29.49F

$$
NMZ532>537-242000-
EASTCENTRAL PLAINS

CITY           SKY/WX    TMP DP  RH WIND       PRES   REMARKS
TUCUMCARI      FAIR      53  10  18 W39G54    29.61F
CANNON AFB     FAIR      53  26  35 W26G43    29.64F
CLOVIS AIRPORT FAIR      52  27  37 W28G40    29.64F

$$
NMZ028-029-538-242000-
SOUTHEAST PLAINS

CITY           SKY/WX    TMP DP  RH WIND       PRES   REMARKS
ROSWELL        FAIR      59  19  21 W21G33    29.70F
ARTESIA        FAIR      59  25  27 W40G52    29.72F
CARLSBAD       LGT RAIN  60  29  30 W35G44    29.72F
HOBBS          SUNNY     59  27  29 SW32G45   29.72F


$$




USA.gov is the U.S. government's official web portal to all federal, state and local government web resources and services.